Date_and_time,latitude,longitude,wind_speed,RelWindDirFrom,WindDirFrom,air_pressure,air_temperature,relative_humidity,Temp,platform_speed_wrt_ground,air_pressure_at_mean_sea_level,platform_orientation
2018-08-03 00:00,50.6552233333333,-96.6437733333333,13.0,15.8,181,983.68,23.4,45,21.05,2.8,1009.31,8.0
2018-08-03 00:10,50.6627866666667,-96.640865,13.7,15.8,185,983.59,24.0,48,21.09,2.8,1009.21,8.0
2018-08-03 00:20,50.6720983333333,-96.6385883333333,13.8,17.3,182,983.53,23.6,47,21.24,3.4,1009.17,8.0
2018-08-03 00:30,50.6793933333333,-96.6374116666667,12.7,17.3,175,983.41,23.4,49,21.29,2.6,1009.07,8.0
2018-08-03 00:40,50.679375,-96.6374783333333,13.6,16.5,168,983.23,20.4,55,21.30,0.0,1009.01,8.0
2018-08-03 00:50,50.679315,-96.6374766666667,13.6,15.7,166,983.27,20.1,55,21.32,0.0,1009.06,8.0
2018-08-03 01:00,50.684075,-96.6045783333333,15.8,20.1,137,983.24,20.3,53,21.38,7.7,1009.03,8.6
2018-08-03 01:10,50.6893616666667,-96.564535,11.4,16.0,117,983.43,20.3,53,21.62,9.3,1009.22,8.6
2018-08-03 01:20,50.69478,-96.562265,6.0,9.2,133,983.66,21.0,52,21.60,2.0,1009.40,8.6
2018-08-03 01:30,50.6947766666667,-96.5622583333333,6.9,8.9,149,983.65,21.0,54,21.39,0.0,1009.38,8.6
2018-08-03 01:40,50.694775,-96.5622566666667,7.4,9.3,148,983.65,20.6,56,21.38,0.0,1009.38,8.6
2018-08-03 01:50,50.6947783333333,-96.562265,7.3,9.1,150,983.70,20.4,56,21.38,0.0,1009.36,8.6
2018-08-03 02:00,50.69478,-96.56226,7.6,9.2,150,983.69,20.2,57,21.37,0.0,1009.33,25.9
2018-08-03 02:10,50.69478,-96.5622633333333,7.7,9.3,148,983.68,20.0,58,21.37,0.0,1009.35,25.9
2018-08-03 02:20,50.69478,-96.562265,7.4,8.9,145,983.77,19.7,60,21.35,0.0,1009.47,25.9
2018-08-03 02:30,50.6947783333333,-96.562265,7.8,9.4,148,983.84,19.5,60,21.33,0.0,1009.68,25.9
2018-08-03 02:40,50.6947783333333,-96.5622666666667,7.6,9.2,148,983.82,19.3,62,21.33,0.0,1009.68,25.9
2018-08-03 02:50,50.6947783333333,-96.562265,7.7,9.1,151,983.82,19.1,63,21.32,0.0,1009.68,25.9
2018-08-03 03:00,50.6947766666667,-96.5622666666667,7.7,10.1,152,983.79,18.9,65,21.30,0.0,1009.66,52.5
2018-08-03 03:10,50.6947766666667,-96.562265,8.0,10.1,153,983.73,18.7,66,21.27,0.0,1009.58,52.5
2018-08-03 03:20,50.6947766666667,-96.562265,8.5,10.1,150,983.67,18.5,68,21.26,0.0,1009.52,52.5
2018-08-03 03:30,50.6947783333333,-96.5622633333333,7.5,9.4,152,983.71,18.3,69,21.25,0.0,1009.59,52.5
2018-08-03 03:40,50.6947783333333,-96.5622633333333,7.9,9.3,151,983.75,18.1,69,21.24,0.0,1009.65,52.5
2018-08-03 03:50,50.6947766666667,-96.5622633333333,7.5,9.0,152,983.70,17.9,70,21.25,0.0,1009.62,52.5
2018-08-03 04:00,50.6947766666667,-96.5622616666667,7.1,9.4,157,983.67,18.1,68,21.25,0.0,1009.59,68.2
2018-08-03 04:10,50.6947766666667,-96.5622616666667,7.0,8.6,155,983.57,18.1,68,21.26,0.0,1009.49,68.2
2018-08-03 04:20,50.694775,-96.5622633333333,7.9,9.2,148,983.48,17.8,70,21.27,0.0,1009.42,68.2
2018-08-03 04:30,50.6947733333333,-96.562265,8.2,9.9,147,983.41,17.7,69,21.27,0.0,1009.37,68.2
2018-08-03 04:40,50.694775,-96.56226,7.7,9.3,148,983.39,17.9,68,21.25,0.0,1009.35,68.2
2018-08-03 04:50,50.6947766666667,-96.56226,7.7,9.6,143,983.33,17.9,67,21.24,0.0,1009.30,68.2
2018-08-03 05:00,50.694775,-96.5622583333333,7.3,9.3,145,983.30,18.0,67,21.23,0.0,1009.27,168.0
2018-08-03 05:10,50.694775,-96.56226,6.8,8.6,149,983.39,18.0,67,21.22,0.0,1009.37,168.0
2018-08-03 05:20,50.6947766666667,-96.5622583333333,6.8,12.9,161,983.47,18.2,66,21.20,0.0,1009.45,168.0
2018-08-03 05:30,50.6947766666667,-96.56226,10.7,13.6,172,983.45,19.4,60,21.20,0.0,1009.38,168.0
2018-08-03 05:40,50.6947783333333,-96.56226,10.0,12.9,173,983.50,19.9,59,21.21,0.0,1009.43,168.0
2018-08-03 05:50,50.6947783333333,-96.56226,10.9,14.1,173,983.41,19.7,59,21.22,0.0,1009.33,168.0
2018-08-03 06:00,50.6947783333333,-96.5622616666667,10.6,12.8,171,983.28,19.7,60,21.22,0.0,1009.20,0.0
2018-08-03 06:10,50.6947783333333,-96.5622616666667,10.6,13.9,170,983.17,19.4,61,21.23,0.0,1009.12,0.0
2018-08-03 06:20,50.6947783333333,-96.5622616666667,10.4,13.6,172,983.11,19.5,60,21.22,0.0,1009.05,0.0
2018-08-03 06:30,50.6947783333333,-96.5622616666667,10.2,14.3,172,983.09,19.6,61,21.20,0.0,1009.02,0.0
2018-08-03 06:40,50.6947783333333,-96.5622616666667,11.0,14.9,175,983.13,19.9,59,21.19,0.0,1009.04,0.0
2018-08-03 06:50,50.6947783333333,-96.5622616666667,10.8,13.7,176,983.14,20.1,58,21.16,0.0,1009.05,0.0
2018-08-03 07:00,50.6947766666667,-96.5622616666667,10.8,13.4,177,983.22,20.1,59,21.16,0.0,1009.12,0.0
2018-08-03 07:10,50.6947766666667,-96.56226,10.4,12.7,172,983.15,19.7,60,21.15,0.0,1009.06,0.0
2018-08-03 07:20,50.6947766666667,-96.56226,9.0,12.7,171,983.12,19.3,62,21.13,0.0,1009.00,0.0
2018-08-03 07:30,50.6947766666667,-96.56226,9.8,12.3,174,983.07,19.3,61,21.10,0.0,1008.92,0.0
2018-08-03 07:40,50.6947766666667,-96.56226,11.3,14.3,183,983.00,19.9,59,21.06,0.0,1008.83,0.0
2018-08-03 07:50,50.6947766666667,-96.56226,11.1,14.2,181,982.85,20.0,60,21.02,0.0,1008.68,0.0
2018-08-03 08:00,50.6947766666667,-96.56226,10.4,13.8,176,982.92,19.9,60,21.01,0.0,1008.76,348.0
2018-08-03 08:10,50.6947766666667,-96.56226,9.3,12.1,169,982.82,19.3,62,21.01,0.0,1008.68,348.0
2018-08-03 08:20,50.6947783333333,-96.56226,9.7,12.6,175,982.88,19.2,62,21.00,0.0,1008.74,348.0
2018-08-03 08:30,50.6947783333333,-96.56226,7.7,10.6,168,982.91,19.1,63,21.00,0.0,1008.77,348.0
2018-08-03 08:40,50.69478,-96.5622616666667,6.9,10.5,159,982.90,18.6,65,21.00,0.0,1008.77,348.0
2018-08-03 08:50,50.694785,-96.5622616666667,7.2,9.6,147,982.83,17.8,69,21.00,0.0,1008.73,348.0
2018-08-03 09:00,50.69478,-96.5622566666667,7.3,8.8,139,982.68,17.3,70,21.00,0.0,1008.62,90.0
2018-08-03 09:10,50.6947783333333,-96.562255,7.2,9.1,145,982.70,17.2,70,20.99,0.0,1008.67,90.0
2018-08-03 09:20,50.6947783333333,-96.5622533333333,6.0,7.8,155,982.78,17.2,70,20.99,0.0,1008.75,90.0
2018-08-03 09:30,50.6947766666667,-96.56225,6.0,8.4,151,982.82,17.1,71,20.99,0.0,1008.76,90.0
2018-08-03 09:40,50.6947783333333,-96.5622516666667,7.2,9.4,143,982.71,16.8,71,20.98,0.0,1008.66,90.0
2018-08-03 09:50,50.69479,-96.5622716666667,7.4,9.8,143,982.55,16.8,73,20.97,0.0,1008.50,90.0
2018-08-03 10:00,50.6947816666667,-96.5622533333333,6.8,8.7,147,982.47,16.8,74,20.94,0.0,1008.45,12.0
2018-08-03 10:10,50.6947833333333,-96.5622516666667,6.8,9.7,151,982.50,16.9,73,20.93,0.0,1008.47,12.0
2018-08-03 10:20,50.6947816666667,-96.562255,6.0,7.8,151,982.62,16.8,74,20.93,0.0,1008.60,12.0
2018-08-03 10:30,50.69478,-96.562255,7.0,10.4,151,982.61,16.7,75,20.93,0.0,1008.62,12.0
2018-08-03 10:40,50.69478,-96.5622566666667,7.8,11.1,148,982.51,16.6,76,20.92,0.0,1008.56,12.0
2018-08-03 10:50,50.694765,-96.5622533333333,7.9,10.4,134,982.34,16.2,79,20.90,0.0,1008.43,12.0
2018-08-03 11:00,50.6947866666667,-96.5622566666667,8.0,10.1,131,982.26,15.8,80,20.89,0.0,1008.37,48.2
2018-08-03 11:10,50.6947816666667,-96.562255,8.0,10.4,139,982.25,15.7,81,20.86,0.0,1008.36,48.2
2018-08-03 11:20,50.6947833333333,-96.56226,8.3,10.9,150,982.27,16.0,81,20.85,0.0,1008.37,48.2
2018-08-03 11:30,50.6947666666667,-96.5622466666667,8.0,11.2,142,982.18,15.7,82,20.85,0.0,1008.31,48.2
2018-08-03 11:40,50.69477,-96.5622583333333,7.3,9.1,142,982.16,15.5,83,20.83,0.0,1008.30,48.2
2018-08-03 11:50,50.6947733333333,-96.5622633333333,8.5,11.3,153,982.25,15.7,82,20.82,0.0,1008.38,48.2
2018-08-03 12:00,50.6947733333333,-96.5622666666667,8.9,10.8,153,982.18,15.9,82,20.81,0.0,1008.30,192.0
2018-08-03 12:10,50.6947716666667,-96.5622633333333,8.0,10.5,154,982.20,16.1,82,20.80,0.0,1008.31,192.0
2018-08-03 12:20,50.69477,-96.5622616666667,8.7,10.5,153,982.24,16.3,80,20.79,0.0,1008.34,192.0
2018-08-03 12:30,50.6947716666667,-96.5622616666667,9.0,11.0,154,982.24,16.7,77,20.79,0.0,1008.33,192.0
2018-08-03 12:40,50.693885,-96.5615583333333,9.1,12.9,145,982.22,17.4,74,20.80,0.4,1008.30,192.0
2018-08-03 12:50,50.7013066666667,-96.5876833333333,3.2,12.3,161,982.20,16.6,77,21.06,6.5,1008.34,192.0
2018-08-03 13:00,50.7316316666667,-96.590175,6.8,9.4,83,982.12,16.7,78,21.05,10.9,1008.26,334.3
2018-08-03 13:10,50.761645,-96.591895,6.7,11.2,92,982.03,17.3,75,20.83,10.8,1008.13,334.3
2018-08-03 13:20,50.7859283333333,-96.564345,12.5,17.7,101,981.87,17.3,77,20.85,10.8,1007.97,334.3
2018-08-03 13:30,50.7948066666667,-96.5201616666667,19.7,26.7,129,981.63,17.1,79,20.83,10.6,1007.74,334.3
2018-08-03 13:40,50.7805366666667,-96.4877316666667,23.5,28.7,151,981.45,17.3,79,20.75,9.0,1007.54,334.3
2018-08-03 13:50,50.7767333333333,-96.47835,16.3,19.2,160,982.19,17.5,78,20.62,2.5,1008.27,334.3
2018-08-03 14:00,50.771795,-96.4689516666667,17.6,19.7,160,982.08,17.7,77,20.65,2.8,1008.14,37.4
2018-08-03 14:10,50.7670633333333,-96.4595133333333,18.1,20.2,158,982.00,17.9,76,20.72,2.7,1008.05,37.4
2018-08-03 14:20,50.7587816666667,-96.4498416666667,18.9,22.1,156,981.69,17.9,77,20.80,3.7,1007.71,37.4
2018-08-03 14:30,50.7579083333333,-96.4494133333333,15.9,19.9,156,981.73,18.3,75,20.85,0.3,1007.71,37.4
2018-08-03 14:40,50.7579366666667,-96.4492283333333,14.3,17.5,156,981.88,18.5,75,20.88,0.0,1007.88,37.4
2018-08-03 14:50,50.7579383333333,-96.4492316666667,13.1,15.4,158,982.07,19.0,73,20.89,0.0,1008.06,37.4
2018-08-03 15:00,50.7579133333333,-96.4492383333333,13.8,16.0,164,982.08,19.3,71,20.90,0.0,1008.02,48.5
2018-08-03 15:10,50.7578933333333,-96.44935,13.8,15.8,160,982.02,19.3,72,20.90,0.0,1007.96,48.5
2018-08-03 15:20,50.74697,-96.4729366666667,15.7,19.2,173,982.11,19.3,72,20.91,6.7,1008.06,48.5
2018-08-03 15:30,50.721435,-96.4498016666667,23.5,25.6,145,981.05,19.5,70,20.85,10.6,1006.95,48.5
2018-08-03 15:40,50.6954616666667,-96.4242816666667,22.2,24.4,145,981.14,20.1,69,21.01,11.0,1007.02,48.5
2018-08-03 15:50,50.68152,-96.4097516666667,15.5,21.4,151,981.74,20.6,67,21.01,6.0,1007.60,48.5
2018-08-03 16:00,50.6756666666667,-96.4049516666667,11.6,13.2,153,981.95,20.9,67,21.08,2.4,1007.79,115.4
2018-08-03 16:10,50.66908,-96.3978,12.3,14.4,154,981.89,21.2,67,21.07,2.9,1007.71,115.4
2018-08-03 16:20,50.6623266666667,-96.39121,12.2,15.3,145,981.69,21.4,66,21.05,2.9,1007.49,115.4
2018-08-03 16:30,50.65316,-96.3821783333333,15.5,18.0,139,981.26,21.8,64,21.03,3.9,1007.01,115.4
2018-08-03 16:40,50.6499283333333,-96.3795916666667,13.3,17.0,139,981.36,22.2,63,21.17,1.3,1007.08,115.4
2018-08-03 16:50,50.6499133333333,-96.3795966666667,12.7,16.0,140,981.36,22.6,61,21.14,0.0,1007.04,115.4
2018-08-03 17:00,50.6498016666667,-96.37942,12.8,17.4,148,981.39,23.0,60,21.19,0.1,1007.06,155.0
2018-08-03 17:10,50.6616816666667,-96.3914533333333,8.8,13.0,139,981.42,24.5,55,21.24,5.1,1007.02,155.0
2018-08-03 17:20,50.6802333333333,-96.4094633333333,8.1,11.2,132,981.20,27.3,47,21.16,7.8,1006.66,155.0
2018-08-03 17:30,50.7055916666667,-96.4344083333333,4.9,10.1,103,980.95,26.7,56,21.21,10.8,1006.41,155.0
2018-08-03 17:40,50.7325433333333,-96.4604683333333,3.8,6.2,99,980.89,24.2,62,21.19,11.4,1006.43,155.0
2018-08-03 17:50,50.7634716666667,-96.45423,10.2,14.3,86,980.82,23.3,65,21.20,11.2,1006.39,155.0
2018-08-03 18:00,50.7945983333333,-96.4466216666667,7.8,9.6,86,981.00,23.3,63,21.07,11.3,1006.57,2.7
2018-08-03 18:10,50.8255683333333,-96.4389333333333,7.6,9.6,62,981.10,23.4,63,21.00,11.3,1006.66,2.7
2018-08-03 18:20,50.846995,-96.4335333333333,6.7,10.2,99,981.15,23.5,62,21.01,7.8,1006.68,2.7
2018-08-03 18:30,50.8545883333333,-96.4313216666667,6.4,7.7,150,981.18,25.5,54,21.06,2.8,1006.60,2.7
2018-08-03 18:40,50.8631516666667,-96.4282,7.2,12.4,145,980.92,25.6,57,21.10,3.2,1006.32,2.7
2018-08-03 18:50,50.87201,-96.4259133333333,7.7,11.4,144,980.75,25.9,53,21.06,3.2,1006.12,2.7
2018-08-03 19:00,50.879235,-96.4239766666667,6.2,9.3,157,980.74,25.7,55,21.17,2.6,1006.05,356.6
2018-08-03 19:10,50.8792433333333,-96.4239883333333,8.6,10.2,163,980.52,24.4,57,21.20,0.0,1005.76,356.6
2018-08-03 19:20,50.8792483333333,-96.4239633333333,6.9,8.4,166,980.51,24.2,59,21.20,0.0,1005.78,356.6
2018-08-03 19:30,50.8695216666667,-96.4445916666667,10.5,15.9,197,980.35,24.2,58,21.26,5.9,1005.72,356.6
2018-08-03 19:40,50.8511183333333,-96.48354,14.7,16.0,195,979.98,24.4,58,21.25,11.1,1005.38,356.6
2018-08-03 19:50,50.8327133333333,-96.5223366666667,14.7,16.3,183,979.99,24.3,59,21.41,11.0,1005.39,356.6
2018-08-03 20:00,50.814495,-96.56134,13.6,15.3,179,979.98,24.3,60,21.41,11.0,1005.38,325.1
2018-08-03 20:10,50.79581,-96.6003666666667,9.7,13.7,235,979.92,24.3,61,21.33,11.1,1005.31,325.1
2018-08-03 20:20,50.7768516666667,-96.6395216666667,9.5,14.3,230,979.80,24.4,61,21.24,11.2,1005.09,325.1
2018-08-03 20:30,50.7584116666667,-96.6785566666667,11.7,17.1,210,979.64,25.1,58,21.42,11.1,1004.90,325.1
2018-08-03 20:40,50.74054,-96.717055,18.5,20.9,211,979.09,24.6,62,21.77,10.9,1004.34,325.1
2018-08-03 20:50,50.7228716666667,-96.755505,18.9,20.0,206,978.91,24.8,60,21.68,10.8,1004.16,325.1
2018-08-03 21:00,50.7052883333333,-96.7940966666667,17.1,18.5,197,978.80,24.9,59,21.71,10.8,1004.10,248.0
2018-08-03 21:10,50.6875683333333,-96.8328533333333,15.7,16.9,188,978.76,25.0,61,21.78,10.9,1004.06,248.0
2018-08-03 21:20,50.669765,-96.871575,14.2,15.5,185,978.71,24.6,65,21.85,10.9,1004.03,248.0
2018-08-03 21:30,50.6520033333333,-96.910485,13.5,14.4,179,978.63,24.4,67,21.80,10.9,1003.95,248.0
2018-08-03 21:40,50.634115,-96.9494016666667,12.4,13.4,179,978.54,24.2,70,21.59,11.0,1003.86,248.0
2018-08-03 21:50,50.6299166666667,-96.9808416666667,8.3,13.3,168,978.42,24.4,69,21.35,7.3,1003.74,248.0
2018-08-03 22:00,50.6304933333333,-96.9807633333333,9.2,10.5,115,978.17,27.7,57,21.29,0.2,1003.34,235.0
2018-08-03 22:10,50.6304716666667,-96.98076,8.8,9.7,113,978.09,29.8,55,20.91,0.0,1003.16,235.0
2018-08-03 22:20,50.6304483333333,-96.9807683333333,9.0,9.9,108,977.98,26.2,69,20.87,0.0,1003.17,235.0
2018-08-03 22:30,50.63045,-96.980775,8.5,9.7,113,977.89,24.9,72,21.00,0.0,1003.15,235.0
2018-08-03 22:40,50.6304516666667,-96.980775,8.7,9.4,113,977.80,24.7,72,20.89,0.0,1003.06,235.0
2018-08-03 22:50,50.63045,-96.9807733333333,8.8,9.7,113,977.65,24.7,74,20.93,0.0,1002.91,235.0
2018-08-03 23:00,50.6304366666667,-96.980755,9.3,11.3,116,977.50,24.6,75,20.84,0.0,1002.75,235.4
2018-08-03 23:10,50.6304183333333,-96.9807666666667,11.2,12.8,121,977.41,24.9,72,20.84,0.0,1002.66,235.4
2018-08-03 23:20,50.6304483333333,-96.9807666666667,10.8,12.3,119,977.47,25.0,73,20.96,0.0,1002.73,235.4
2018-08-03 23:30,50.63045,-96.9807633333333,10.9,12.5,123,977.44,25.1,72,21.16,0.0,1002.70,235.4
